When you browse on this site, cookies collect data to enhance your experience and personalize the content and advertising you see.
Visit our Privacy Policy to learn more. By continuing to use the site, you agree to this use of cookies and data.
  • In France
  • List of Countries
  • For 7 days
  • Water Temperature
  • Weather Map
  • Weather Widgets
  • user-avatar
    Login

    Hourly Weather Ordino

    Today, 21 February, Friday

    Time Temperature Precipitation Wind Pressure Humidity
    00:00 +1°C° 0 mm 2 mps 638 mmHg 75%
    01:00 +1°C° 0 mm 2 mps 637 mmHg 75%
    02:00 +1°C° 0 mm 2 mps 637 mmHg 75%
    03:00 +1°C° 0 mm 2 mps 637 mmHg 75%
    04:00 +2°C° 0 mm 1 mps 637 mmHg 69%
    05:00 +2°C° 0 mm 1 mps 637 mmHg 62%
    06:00 +2°C° 0 mm 1 mps 638 mmHg 54%
    13:00 +11°C° 0 mm 1 mps 641 mmHg 39%
    14:00 +11°C° 0 mm 1 mps 641 mmHg 43%
    15:00 +11°C° 0 mm 1 mps 640 mmHg 47%
    16:00 +8°C° 0 mm 1 mps 639 mmHg 56%
    17:00 +6°C° 0 mm 1 mps 639 mmHg 65%
    18:00 +4°C° 0 mm 1 mps 638 mmHg 73%
    19:00 +4°C° 0 mm 1 mps 638 mmHg 62%
    20:00 +4°C° 0 mm 1 mps 638 mmHg 51%
    21:00 +4°C° 0 mm 1 mps 639 mmHg 41%
    22:00 +4°C° 0 mm 1 mps 639 mmHg 38%
    23:00 +3°C° 0 mm 2 mps 639 mmHg 36%

    Tomorrow, 22 February, Saturday

    Time Temperature Precipitation Wind Pressure Humidity
    00:00 +3°C° 0 mm 2 mps 639 mmHg 33%
    01:00 +3°C° 0 mm 2 mps 639 mmHg 31%
    02:00 +3°C° 0 mm 2 mps 639 mmHg 29%
    03:00 +3°C° 0 mm 2 mps 639 mmHg 27%
    04:00 +3°C° 0 mm 2 mps 639 mmHg 25%
    05:00 +3°C° 0 mm 2 mps 639 mmHg 24%
    06:00 +3°C° 0 mm 2 mps 639 mmHg 22%
    07:00 +6°C° 0 mm 1 mps 640 mmHg 24%
    08:00 +8°C° 0 mm 1 mps 641 mmHg 26%
    09:00 +10°C° 0 mm 1 mps 642 mmHg 28%
    10:00 +11°C° 0 mm 1 mps 643 mmHg 27%
    11:00 +12°C° 0 mm 1 mps 644 mmHg 27%
    12:00 +13°C° 0 mm 1 mps 644 mmHg 27%
    13:00 +13°C° 0 mm 1 mps 644 mmHg 29%
    14:00 +13°C° 0 mm 1 mps 644 mmHg 31%
    15:00 +13°C° 0 mm 1 mps 643 mmHg 34%
    16:00 +10°C° 0 mm 1 mps 642 mmHg 45%
    17:00 +8°C° 0 mm 1 mps 642 mmHg 56%
    18:00 +5°C° 0 mm 1 mps 641 mmHg 66%
    19:00 +5°C° 0 mm 1 mps 641 mmHg 59%
    20:00 +5°C° 0 mm 1 mps 642 mmHg 52%
    21:00 +4°C° 0 mm 2 mps 642 mmHg 45%
    22:00 +4°C° 0 mm 2 mps 642 mmHg 41%
    23:00 +4°C° 0 mm 2 mps 642 mmHg 36%

    Day after tomorrow, 23 February, Sunday

    Time Temperature Precipitation Wind Pressure Humidity
    00:00 +4°C° 0 mm 2 mps 642 mmHg 32%
    01:00 +4°C° 0 mm 2 mps 642 mmHg 31%
    02:00 +5°C° 0 mm 1 mps 641 mmHg 30%
    03:00 +5°C° 0 mm 1 mps 641 mmHg 30%
    04:00 +5°C° 0 mm 1 mps 641 mmHg 30%
    05:00 +5°C° 0 mm 1 mps 641 mmHg 30%
    06:00 +5°C° 0 mm 1 mps 641 mmHg 30%
    07:00 +7°C° 0 mm 1 mps 642 mmHg 31%
    08:00 +9°C° 0 mm 1 mps 643 mmHg 32%
    09:00 +12°C° 0 mm 1 mps 643 mmHg 33%
    10:00 +13°C° 0 mm 1 mps 644 mmHg 31%
    11:00 +15°C° 0 mm 1 mps 644 mmHg 29%
    12:00 +16°C° 0 mm 1 mps 645 mmHg 27%
    13:00 +16°C° 0 mm 1 mps 644 mmHg 30%
    14:00 +16°C° 0 mm 1 mps 644 mmHg 33%
    15:00 +16°C° 0 mm 1 mps 643 mmHg 36%
    16:00 +13°C° 0 mm 1 mps 642 mmHg 44%
    17:00 +11°C° 0 mm 1 mps 641 mmHg 52%
    18:00 +8°C° 0 mm 1 mps 641 mmHg 61%
    19:00 +8°C° 0 mm 1 mps 640 mmHg 56%
    20:00 +8°C° 0 mm 1 mps 640 mmHg 52%
    21:00 +7°C° 0 mm 1 mps 640 mmHg 48%
    22:00 +7°C° 0 mm 1 mps 640 mmHg 46%
    23:00 +7°C° 0 mm 1 mps 640 mmHg 45%

    24 February, Monday

    Time Temperature Precipitation Wind Pressure Humidity
    00:00 +7°C° 0 mm 1 mps 640 mmHg 43%
    01:00 +7°C° 0 mm 1 mps 640 mmHg 44%
    02:00 +7°C° 0 mm 1 mps 639 mmHg 46%
    03:00 +7°C° 0 mm 1 mps 639 mmHg 48%
    04:00 +6°C° 0 mm 1 mps 639 mmHg 49%
    05:00 +6°C° 0 mm 1 mps 638 mmHg 50%
    06:00 +6°C° 0 mm 1 mps 638 mmHg 51%
    07:00 +8°C° 0 mm 1 mps 639 mmHg 48%
    08:00 +10°C° 0 mm 1 mps 639 mmHg 45%
    09:00 +11°C° 0 mm 0 mps 640 mmHg 42%
    10:00 +13°C° 0 mm 1 mps 640 mmHg 38%
    11:00 +15°C° 0 mm 1 mps 640 mmHg 34%
    12:00 +16°C° 0 mm 1 mps 640 mmHg 29%
    13:00 +16°C° 0 mm 1 mps 640 mmHg 32%
    14:00 +16°C° 0 mm 1 mps 639 mmHg 35%
    15:00 +15°C° 0 mm 1 mps 638 mmHg 37%
    16:00 +13°C° 0 mm 1 mps 637 mmHg 47%
    17:00 +10°C° 0 mm 1 mps 637 mmHg 58%
    18:00 +8°C° 0 mm 1 mps 636 mmHg 68%
    19:00 +7°C° 0 mm 1 mps 635 mmHg 62%
    20:00 +7°C° 0 mm 1 mps 635 mmHg 56%
    21:00 +6°C° 0 mm 1 mps 635 mmHg 50%
    22:00 +6°C° 0 mm 1 mps 635 mmHg 47%
    23:00 +6°C° 0 mm 1 mps 635 mmHg 44%

    25 February, Tuesday

    Time Temperature Precipitation Wind Pressure Humidity
    00:00 +5°C° 0 mm 1 mps 635 mmHg 41%
    01:00 +4°C° 0 mm 2 mps 634 mmHg 39%
    02:00 +4°C° 0 mm 2 mps 634 mmHg 38%
    03:00 +3°C° 0 mm 2 mps 634 mmHg 36%
    04:00 +3°C° 0 mm 2 mps 634 mmHg 36%
    05:00 +3°C° 0 mm 2 mps 634 mmHg 36%
    06:00 +3°C° 0 mm 2 mps 633 mmHg 37%
    07:00 +5°C° 0 mm 1 mps 634 mmHg 35%
    08:00 +7°C° 0 mm 1 mps 635 mmHg 34%
    09:00 +8°C° 0 mm 1 mps 635 mmHg 32%
    10:00 +9°C° 0 mm 1 mps 635 mmHg 33%
    11:00 +10°C° 0 mm 1 mps 636 mmHg 34%
    12:00 +9°C° 0 mm 2 mps 636 mmHg 35%
    13:00 +9°C° 0 mm 2 mps 635 mmHg 39%
    14:00 +8°C° 0 mm 2 mps 634 mmHg 44%
    15:00 +8°C° 0 mm 2 mps 634 mmHg 48%
    16:00 +6°C° 0 mm 2 mps 633 mmHg 60%
    17:00 +5°C° 0 mm 2 mps 633 mmHg 71%
    18:00 +3°C° 0 mm 2 mps 632 mmHg 82%
    19:00 +2°C° 0 mm 2 mps 632 mmHg 83%
    20:00 +2°C° 0 mm 2 mps 632 mmHg 84%
    21:00 +2°C° 0 mm 2 mps 632 mmHg 86%
    22:00 +2°C° 0 mm 2 mps 632 mmHg 86%
    23:00 +2°C° 0 mm 2 mps 632 mmHg 87%

    26 February, Wednesday

    Time Temperature Precipitation Wind Pressure Humidity
    00:00 +2°C° 0 mm 2 mps 632 mmHg 88%
    01:00 +2°C° 0.1 mm 2 mps 632 mmHg 89%
    02:00 +1°C° 0.1 mm 2 mps 632 mmHg 90%
    03:00 +1°C° 0.1 mm 2 mps 632 mmHg 91%
    04:00 +1°C° 0.1 mm 2 mps 632 mmHg 91%
    05:00 +1°C° 0.1 mm 2 mps 632 mmHg 91%
    06:00 +1°C° 0.1 mm 2 mps 632 mmHg 91%
    07:00 +1°C° 0 mm 2 mps 633 mmHg 84%
    08:00 +2°C° 0 mm 2 mps 633 mmHg 77%
    09:00 +1°C° 0 mm 3 mps 634 mmHg 71%
    10:00 +4°C° 0 mm 2 mps 634 mmHg 62%
    11:00 +5°C° 0 mm 2 mps 634 mmHg 54%
    12:00 +6°C° 0 mm 2 mps 635 mmHg 45%
    13:00 +6°C° 0 mm 2 mps 634 mmHg 45%
    14:00 +5°C° 0 mm 3 mps 634 mmHg 46%
    15:00 +5°C° 0 mm 3 mps 634 mmHg 46%
    16:00 +3°C° 0 mm 3 mps 633 mmHg 58%
    17:00 +2°C° 0 mm 2 mps 633 mmHg 70%
    18:00 +1°C° 0 mm 2 mps 632 mmHg 82%
    19:00 -1°C° 0 mm 2 mps 633 mmHg 82%
    20:00 -1°C° 0 mm 2 mps 633 mmHg 81%
    21:00 -2°C° 0 mm 2 mps 633 mmHg 81%
    22:00 -2°C° 0 mm 2 mps 633 mmHg 77%
    23:00 -2°C° 0 mm 2 mps 633 mmHg 74%
    Show more